Flag for Ghana Weather past 2 weeks in Tamale, Ghana

Now
82 °F

Clear.


Feels Like: 80 °F
Forecast: 73 / 98 °F
Wind: 17 mph from East

Location: Niamtougou

Current Time: Dec 22, 2014 at 10:59:42 AM

Latest Report: Dec 22, 2014 at 10:00 AM


Visibility: 5 mi

Pressure: 30.04 "Hg

Humidity: 17%

Dew point: 34 °F

Location of TamaleLocation

Historic Weather in Tamale — Graph

°F

Tamale temperature yesterday

Maximum temperature yesterday: 93 °F (at 1:00 PM)
Minimum temperature yesterday: 68 °F (at 3:00 AM)
Average temperature yesterday: 83 °F

Past Weeks' High & Low Weather Summary

 TemperatureHumidityPressure
High95 °F (Dec 7, 1:00 PM)88% (Dec 8, 6:00 AM)30.07 "Hg (Dec 8, 6:00 AM)
Low64 °F (Dec 10, 6:00 AM)11% (Dec 7, 1:00 PM)29.86 "Hg (Dec 8, 12:00 PM)
Average82 °F30%29.97 "Hg
* Reported Dec 7 9:00 AM — Dec 22 9:00 AM, Tamale, Weather by CustomWeather, © 2014

Note: Actual official high and low records may vary slightly from our data, if they occured in-between our weather recording intervals... More about our weather records

Advertising

Tamale weather history for previous 24 hours

 ConditionsComfort  
Time TempWeatherWind HumidityBarometerVisibility
9:00 AM
Dec 22
79 °FClear.14 mph20%30.04 "Hg5 mi
8:00 AM75 °FClear.13 mph22%30.04 "Hg5 mi
7:00 AM73 °FClear.14 mph23%30.01 "Hg5 mi
6:00 AM72 °FSunny.7 mph27%30.01 "Hg10 mi
3:00 AM75 °FClear.7 mph41%29.98 "Hg10 mi
12:00 AM79 °FClear.7 mph42%30.01 "Hg10 mi
9:00 PM
Dec 21
77 °FClear.5 mph44%30.01 "Hg10 mi
6:00 PM86 °FClear.5 mph20%29.95 "Hg10 mi
5:00 PM91 °FClear.5 mph15%29.92 "Hg10 mi
4:00 PM93 °FPassing clouds.7 mph13%29.92 "HgN/A
3:00 PM93 °FPassing clouds.7 mph13%29.92 "HgN/A
2:00 PM93 °FExtremely hot.6 mph13%29.95 "HgN/A
1:00 PM93 °FSunny.7 mph13%29.98 "Hg10 mi
12:00 PM91 °FSunny.7 mph13%30.01 "Hg10 mi
11:00 AM88 °FPassing clouds.6 mph16%30.01 "HgN/A
10:00 AM84 °FPassing clouds.7 mph15%30.04 "HgN/A
Weather by CustomWeather, © 2014

See weather overviewHow to use our weather pages